| time (UTC) | temp F | wind direction | speed knots | gust knots | rain 1hr in | rain 24hr in | rain mn in | humidity % | barometer mb |
| 20260502130250 | 73 | 218 | 2.6 | 3.5 | 0.00 | 0.00 | 0.00 | 13 | 1018.0 |
| 20260502123250 | 74 | 283 | 1.7 | 3.5 | 0.00 | 0.00 | 0.00 | 13 | 1018.0 |
| 20260502122045 | 74 | 248 | 3.5 | 3.5 | 0.00 | 0.00 | 0.00 | 13 | 1019.0 |
| 20260502115037 | 72 | 217 | 2.6 | 4.3 | 0.00 | 0.00 | 0.00 | 13 | 1019.0 |
| 20260502113232 | 71 | 198 | 2.6 | 3.5 | 0.00 | 0.00 | 0.00 | 14 | 1019.0 |
| 20260502112628 | 71 | 307 | 2.6 | 2.6 | 0.00 | 0.00 | 0.00 | 14 | 1019.0 |
| 20260502101358 | 68 | 211 | 2.6 | 2.6 | 0.00 | 0.00 | 0.00 | 15 | 1020.0 |
| 20260502090736 | 67 | 263 | 1.7 | 2.6 | 0.00 | 0.00 | 0.00 | 15 | 1021.0 |
| 20260502090132 | 66 | 262 | 1.7 | 2.6 | 0.00 | 0.00 | 0.00 | 15 | 1021.0 |
| 20260502071328 | 57 | 5 | 1.7 | 2.6 | 0.00 | 0.00 | 0.00 | 24 | 1021.0 |
| 20260502071255 | 57 | 5 | 1.7 | 2.6 | 0.00 | 0.00 | 0.00 | 24 | 1021.0 |
| 20260502070703 | 56 | 5 | 2.6 | 2.6 | 0.00 | 0.00 | 0.00 | 24 | 1021.0 |
| 20260502070655 | 56 | 5 | 2.6 | 2.6 | 0.00 | 0.00 | 0.00 | 24 | 1021.0 |
| 20260502070054 | 55 | 5 | 1.7 | 2.6 | 0.00 | 0.00 | 0.00 | 25 | 1021.0 |
| 20260502064855 | 54 | 5 | 0.0 | 0.0 | 0.00 | 0.00 | 0.00 | 30 | 1021.0 |
| 20260502064254 | 53 | 5 | 0.0 | 0.0 | 0.00 | 0.00 | 0.00 | 33 | 1021.0 |
| 20260502063101 | 52 | 5 | 0.0 | 0.0 | 0.00 | 0.00 | 0.00 | 36 | 1021.0 |
| 20260502063054 | 52 | 5 | 0.0 | 0.0 | 0.00 | 0.00 | 0.00 | 36 | 1021.0 |
| 20260502061854 | 51 | 5 | 0.0 | 0.0 | 0.00 | 0.00 | 0.00 | 36 | 1021.0 |
| 20260502061259 | 51 | 5 | 0.0 | 0.0 | 0.00 | 0.00 | 0.00 | 36 | 1021.0 |
| 20260502061254 | 51 | 5 | 0.0 | 0.0 | 0.00 | 0.00 | 0.00 | 36 | 1021.0 |
| 20260502060654 | 51 | 5 | 0.0 | 0.0 | 0.00 | 0.00 | 0.00 | 36 | 1021.0 |
| 20260502060054 | 51 | 5 | 0.0 | 0.0 | 0.00 | 0.00 | 0.00 | 37 | 1021.0 |
| 20260502054852 | 50 | 5 | 0.0 | 0.0 | 0.00 | 0.00 | 0.00 | 38 | 1021.0 |
| 20260502054258 | 49 | 5 | 0.0 | 0.0 | 0.00 | 0.00 | 0.00 | 38 | 1021.0 |
| 20260502054251 | 49 | 5 | 0.0 | 0.0 | 0.00 | 0.00 | 0.00 | 38 | 1021.0 |
| 20260502053650 | 47 | 5 | 1.7 | 1.7 | 0.00 | 0.00 | 0.00 | 38 | 1021.0 |
| 20260502053058 | 46 | 5 | 1.7 | 1.7 | 0.00 | 0.00 | 0.00 | 39 | 1021.0 |
| 20260502053049 | 46 | 5 | 1.7 | 1.7 | 0.00 | 0.00 | 0.00 | 39 | 1021.0 |
| 20260502052447 | 45 | 5 | 1.7 | 2.6 | 0.00 | 0.00 | 0.00 | 39 | 1021.0 |
| 20260502051847 | 44 | 5 | 2.6 | 2.6 | 0.00 | 0.00 | 0.00 | 39 | 1021.0 |
| 20260502051257 | 43 | 5 | 2.6 | 2.6 | 0.00 | 0.00 | 0.00 | 39 | 1021.0 |
| 20260502051246 | 43 | 5 | 2.6 | 2.6 | 0.00 | 0.00 | 0.00 | 39 | 1021.0 |
| 20260502050050 | 41 | 5 | 2.6 | 2.6 | 0.00 | 0.00 | 0.00 | 39 | 1020.0 |
| 20260502050041 | 41 | 5 | 2.6 | 2.6 | 0.00 | 0.00 | 0.00 | 39 | 1020.0 |
| 20260502045439 | 41 | 5 | 1.7 | 1.7 | 0.00 | 0.00 | 0.00 | 39 | 1020.0 |
| 20260502044834 | 40 | 5 | 2.6 | 2.6 | 0.00 | 0.00 | 0.00 | 38 | 1020.0 |
| 20260502044242 | 40 | 5 | 2.6 | 2.6 | 0.00 | 0.00 | 0.00 | 38 | 1020.0 |
| 20260502044232 | 40 | 5 | 2.6 | 2.6 | 0.00 | 0.00 | 0.00 | 38 | 1020.0 |
| 20260502043630 | 40 | 5 | 0.0 | 1.7 | 0.00 | 0.00 | 0.00 | 38 | 1020.0 |
| 20260502043031 | 40 | 5 | 2.6 | 2.6 | 0.00 | 0.00 | 0.00 | 38 | 1020.0 |
| 20260502041234 | 39 | 5 | 1.7 | 1.7 | 0.00 | 0.00 | 0.00 | 37 | 1020.0 |
| 20260502041226 | 39 | 5 | 1.7 | 1.7 | 0.00 | 0.00 | 0.00 | 37 | 1020.0 |
| 20260502040635 | 39 | 5 | 1.7 | 2.6 | 0.00 | 0.00 | 0.00 | 36 | 1020.0 |
| 20260502040626 | 39 | 5 | 1.7 | 2.6 | 0.00 | 0.00 | 0.00 | 36 | 1020.0 |
| 20260502040026 | 39 | 5 | 1.7 | 1.7 | 0.00 | 0.00 | 0.00 | 36 | 1020.0 |
| 20260502035426 | 39 | 5 | 2.6 | 2.6 | 0.00 | 0.00 | 0.00 | 34 | 1020.0 |
| 20260502034226 | 39 | 5 | 1.7 | 2.6 | 0.00 | 0.00 | 0.00 | 35 | 1020.0 |
| 20260502033621 | 39 | 5 | 1.7 | 2.6 | 0.00 | 0.00 | 0.00 | 34 | 1020.0 |
| 20260502033019 | 39 | 5 | 1.7 | 1.7 | 0.00 | 0.00 | 0.00 | 33 | 1020.0 |
| 20260502031813 | 39 | 5 | 2.6 | 2.6 | 0.00 | 0.00 | 0.00 | 32 | 1020.0 |
| 20260502031213 | 39 | 5 | 1.7 | 2.6 | 0.00 | 0.00 | 0.00 | 32 | 1020.0 |
| 20260502025401 | 40 | 5 | 0.0 | 0.0 | 0.00 | 0.00 | 0.00 | 30 | 1020.0 |
| 20260502024757 | 41 | 5 | 0.0 | 0.0 | 0.00 | 0.00 | 0.00 | 31 | 1020.0 |
| 20260502024152 | 41 | 5 | 0.0 | 1.7 | 0.00 | 0.00 | 0.00 | 31 | 1020.0 |
| 20260502021743 | 41 | 5 | 1.7 | 2.6 | 0.00 | 0.00 | 0.00 | 30 | 1020.0 |
| 20260502020545 | 41 | 5 | 2.6 | 2.6 | 0.00 | 0.00 | 0.00 | 29 | 1020.0 |
| 20260502020537 | 41 | 5 | 2.6 | 2.6 | 0.00 | 0.00 | 0.00 | 29 | 1020.0 |
| 20260502015334 | 42 | 5 | 0.0 | 1.7 | 0.00 | 0.00 | 0.00 | 29 | 1020.0 |
| 20260502014129 | 41 | 5 | 0.0 | 0.0 | 0.00 | 0.00 | 0.00 | 29 | 1020.0 |
| 20260502013525 | 41 | 5 | 0.0 | 2.6 | 0.00 | 0.00 | 0.00 | 29 | 1020.0 |
| 20260502012319 | 42 | 5 | 1.7 | 2.6 | 0.00 | 0.00 | 0.00 | 28 | 1021.0 |
| 20260502011119 | 43 | 5 | 0.0 | 1.7 | 0.00 | 0.00 | 0.00 | 28 | 1021.0 |
| 20260502005317 | 43 | 5 | 0.0 | 0.0 | 0.00 | 0.00 | 0.00 | 28 | 1021.0 |
| 20260502002912 | 44 | 5 | 1.7 | 1.7 | 0.00 | 0.00 | 0.00 | 27 | 1021.0 |
| 20260502002309 | 44 | 5 | 1.7 | 2.6 | 0.00 | 0.00 | 0.00 | 27 | 1021.0 |
| 20260501235859 | 44 | 5 | 1.7 | 2.6 | 0.00 | 0.00 | 0.00 | 25 | 1021.0 |
| 20260501235257 | 44 | 5 | 2.6 | 2.6 | 0.00 | 0.00 | 0.00 | 22 | 1021.0 |
| 20260501234050 | 45 | 5 | 0.0 | 1.7 | 0.00 | 0.00 | 0.00 | 22 | 1021.0 |
| 20260501233447 | 44 | 5 | 1.7 | 1.7 | 0.00 | 0.00 | 0.00 | 22 | 1021.0 |
| 20260501232845 | 44 | 5 | 2.6 | 2.6 | 0.00 | 0.00 | 0.00 | 22 | 1021.0 |
| 20260501232245 | 45 | 5 | 2.6 | 2.6 | 0.00 | 0.00 | 0.00 | 20 | 1021.0 |
| 20260501231644 | 46 | 5 | 1.7 | 1.7 | 0.00 | 0.00 | 0.00 | 19 | 1021.0 |
| 20260501231156 | 46 | 5 | 2.6 | 2.6 | 0.00 | 0.00 | 0.00 | 19 | 1021.0 |
| 20260501231041 | 46 | 5 | 2.6 | 2.6 | 0.00 | 0.00 | 0.00 | 19 | 1021.0 |
| 20260501230439 | 46 | 5 | 0.0 | 0.0 | 0.00 | 0.00 | 0.00 | 19 | 1021.0 |
| 20260501225838 | 47 | 5 | 0.0 | 1.7 | 0.00 | 0.00 | 0.00 | 19 | 1021.0 |
| 20260501224636 | 48 | 5 | 0.0 | 0.0 | 0.00 | 0.00 | 0.00 | 19 | 1021.0 |
| 20260501224033 | 48 | 5 | 0.0 | 0.0 | 0.00 | 0.00 | 0.00 | 19 | 1021.0 |
| 20260501223433 | 48 | 5 | 0.0 | 0.0 | 0.00 | 0.00 | 0.00 | 19 | 1021.0 |
| 20260501222232 | 49 | 5 | 0.0 | 0.0 | 0.00 | 0.00 | 0.00 | 19 | 1021.0 |
| 20260501221633 | 49 | 5 | 0.0 | 2.6 | 0.00 | 0.00 | 0.00 | 19 | 1021.0 |
| 20260501221032 | 50 | 5 | 1.7 | 1.7 | 0.00 | 0.00 | 0.00 | 19 | 1021.0 |
| 20260501215834 | 51 | 5 | 0.0 | 0.0 | 0.00 | 0.00 | 0.00 | 18 | 1021.0 |
| 20260501215233 | 51 | 5 | 0.0 | 0.0 | 0.00 | 0.00 | 0.00 | 18 | 1021.0 |
| 20260501214633 | 52 | 5 | 0.0 | 0.0 | 0.00 | 0.00 | 0.00 | 18 | 1021.0 |
| 20260501214033 | 52 | 5 | 0.0 | 0.0 | 0.00 | 0.00 | 0.00 | 18 | 1021.0 |
| 20260501213433 | 53 | 5 | 0.0 | 0.0 | 0.00 | 0.00 | 0.00 | 18 | 1021.0 |
| 20260501212227 | 53 | 5 | 1.7 | 1.7 | 0.00 | 0.00 | 0.00 | 18 | 1021.0 |
| 20260501211625 | 53 | 5 | 0.0 | 1.7 | 0.00 | 0.00 | 0.00 | 18 | 1021.0 |
| 20260501211023 | 53 | 5 | 1.7 | 1.7 | 0.00 | 0.00 | 0.00 | 18 | 1021.0 |
| 20260501205819 | 55 | 5 | 0.0 | 1.7 | 0.00 | 0.00 | 0.00 | 17 | 1021.0 |
| 20260501205217 | 55 | 5 | 1.7 | 1.7 | 0.00 | 0.00 | 0.00 | 17 | 1021.0 |
| 20260501204615 | 56 | 5 | 2.6 | 2.6 | 0.00 | 0.00 | 0.00 | 17 | 1021.0 |
| 20260501203413 | 57 | 40 | 3.5 | 5.2 | 0.00 | 0.00 | 0.00 | 17 | 1021.0 |
| 20260501201601 | 58 | 41 | 3.5 | 4.3 | 0.00 | 0.00 | 0.00 | 17 | 1021.0 |
| 20260501200409 | 58 | 48 | 4.3 | 4.3 | 0.00 | 0.00 | 0.00 | 17 | 1021.0 |
| 20260501200359 | 58 | 48 | 4.3 | 4.3 | 0.00 | 0.00 | 0.00 | 17 | 1021.0 |
| 20260501195756 | 58 | 49 | 4.3 | 5.2 | 0.00 | 0.00 | 0.00 | 17 | 1021.0 |
| 20260501195152 | 59 | 43 | 5.2 | 5.2 | 0.00 | 0.00 | 0.00 | 17 | 1020.0 |
| 20260501194547 | 58 | 29 | 5.2 | 5.2 | 0.00 | 0.00 | 0.00 | 17 | 1020.0 |
| 20260501193943 | 58 | 49 | 5.2 | 5.2 | 0.00 | 0.00 | 0.00 | 17 | 1020.0 |
| 20260501193343 | 58 | 50 | 4.3 | 4.3 | 0.00 | 0.00 | 0.00 | 17 | 1020.0 |
| 20260501192136 | 59 | 43 | 2.6 | 3.5 | 0.00 | 0.00 | 0.00 | 17 | 1021.0 |
| 20260501190934 | 59 | 25 | 2.6 | 4.3 | 0.00 | 0.00 | 0.00 | 16 | 1021.0 |
| 20260501190929 | 59 | 25 | 2.6 | 4.3 | 0.00 | 0.00 | 0.00 | 16 | 1021.0 |
| 20260501185722 | 60 | 29 | 3.5 | 3.5 | 0.00 | 0.00 | 0.00 | 16 | 1020.0 |
| 20260501182716 | 61 | 51 | 4.3 | 4.3 | 0.00 | 0.00 | 0.00 | 16 | 1020.0 |
| 20260501180922 | 62 | 42 | 4.3 | 4.3 | 0.00 | 0.00 | 0.00 | 16 | 1020.0 |
| 20260501180916 | 62 | 42 | 4.3 | 4.3 | 0.00 | 0.00 | 0.00 | 16 | 1020.0 |
| 20260501172057 | 65 | 53 | 3.5 | 3.5 | 0.00 | 0.00 | 0.00 | 15 | 1020.0 |
| 20260501170852 | 66 | 49 | 3.5 | 3.5 | 0.00 | 0.00 | 0.00 | 15 | 1020.0 |
| 20260501165649 | 66 | 74 | 2.6 | 3.5 | 0.00 | 0.00 | 0.00 | 15 | 1020.0 |
| 20260501165044 | 67 | 41 | 3.5 | 3.5 | 0.00 | 0.00 | 0.00 | 15 | 1020.0 |
| 20260501164439 | 67 | 49 | 2.6 | 3.5 | 0.00 | 0.00 | 0.00 | 15 | 1020.0 |
| 20260501163837 | 67 | 52 | 3.5 | 3.5 | 0.00 | 0.00 | 0.00 | 15 | 1020.0 |
| 20260501163232 | 67 | 53 | 2.6 | 3.5 | 0.00 | 0.00 | 0.00 | 15 | 1020.0 |
| 20260501162628 | 68 | 48 | 2.6 | 4.3 | 0.00 | 0.00 | 0.00 | 15 | 1020.0 |
| 20260501160818 | 68 | 53 | 4.3 | 4.3 | 0.00 | 0.00 | 0.00 | 14 | 1021.0 |
| 20260501155617 | 69 | 51 | 3.5 | 4.3 | 0.00 | 0.00 | 0.00 | 14 | 1021.0 |
| 20260501151352 | 69 | 54 | 2.6 | 4.3 | 0.00 | 0.00 | 0.00 | 14 | 1021.0 |